Tracking 30696 objects as of 15-Jun-2025
HD Live streaming from Space Station
objects crossing your sky now

STARLINK-4047

Track STARLINK-4047 now!
10-day predictions
STARLINK-4047 is classified as:


NORAD ID: 53243
Int'l Code: 2022-086B
Perigee: 545.8 km
Apogee: 548.0 km
Inclination: 53.2 °
Period: 95.4 minutes
Semi major axis: 6917 km
RCS: Unknown
Launch date: July 24, 2022
Source: United States (US)
Launch site: AIR FORCE EASTERN TEST RANGE (AFETR)
Your satellite tracking list
Your tracking list is empty




NASA's NSSDC Master Catalog

Two Line Element Set (TLE):
1 53243U 22086B   25165.73446474  .00000113  00000-0  25197-4 0  9996
2 53243  53.2190 326.7119 0001561 103.7858 256.3308 15.08834860160819
Source of the keplerian elements: AFSPC